This demonstration page uses our WeatherBlox Daily Observations layout. Learn more.

39.29038, -76.61219

Hourly Observations for September 12, 2019

Temp ( °F °C ) Dew Point ( °F °C ) Humidity (%) Winds ( mph kmh ) Pressure ( in mb ) Visibility ( mi km ) Precip ( " mm )
12:54 am 00:54 undefined 78 25.6 68 20 71 71 undefined N/A 30.03 1017 N/A 0 0
1:54 am 01:54 undefined 77 25 68 20 74 74 undefined N/A 30.03 1017 N/A 0 0
2:54 am 02:54 undefined 77 25 68 20 74 74 undefined N/A 30.03 1017 N/A 0 0
3:54 am 03:54 undefined 78 25.6 67 19.4 69 69 undefined N/A 30.03 1017 N/A 0 0
4:54 am 04:54 undefined 79 26.1 68 20 69 69 undefined N/A 30.03 1017 N/A 0 0
5:54 am 05:54 undefined 77 25 68 20 74 74 undefined N/A 30.03 1017 N/A 0 0
6:54 am 06:54 undefined 76 24.4 67 19.4 74 74 undefined N/A 30.06 1018 N/A 0 0
7:54 am 07:54 undefined 78 25.6 68 20 71 71 undefined N/A 30.06 1018 N/A 0 0
8:54 am 08:54 undefined 83 28.3 69 20.6 63 63 undefined N/A 30.06 1018 N/A 0 0
9:54 am 09:54 undefined 87 30.6 69 20.6 55 55 undefined N/A 30.06 1018 N/A 0 0
10:54 am 10:54 undefined 88 31.1 68 20 52 52 undefined N/A 30.06 1018 N/A 0 0
11:54 am 11:54 undefined 90 32.2 68 20 48 48 undefined N/A 30.06 1018 N/A 0 0
12:54 pm 12:54 undefined 92 33.3 68 20 46 46 undefined N/A 30.03 1017 N/A 0 0
1:54 pm 13:54 undefined 93 33.9 67 19.4 42 42 undefined N/A 30.03 1017 N/A 0 0
2:54 pm 14:54 undefined 93 33.9 66 18.9 41 41 undefined N/A 30 1016 N/A 0 0
3:54 pm 15:54 undefined 92 33.3 67 19.4 44 44 undefined N/A 30 1016 N/A 0 0
4:54 pm 16:54 undefined 90 32.2 67 19.4 47 47 undefined N/A 30.03 1017 N/A 0 0
5:54 pm 17:54 undefined 89 31.7 67 19.4 48 48 undefined N/A 30.03 1017 N/A 0 0
6:54 pm 18:54 undefined 89 31.7 67 19.4 48 48 undefined N/A 30.03 1017 N/A 0 0
7:54 pm 19:54 undefined 84 28.9 67 19.4 57 57 undefined N/A 30.06 1018 N/A 0 0
8:54 pm 20:54 undefined 79 26.1 68 20 69 69 undefined N/A 30.12 1020 N/A 0 0
9:54 pm 21:54 undefined 77 25 70 21.1 79 79 undefined N/A 30.15 1021 N/A 0 0
10:54 pm 22:54 undefined 76 24.4 69 20.6 79 79 undefined N/A 30.15 1021 N/A 0 0
11:54 pm 23:54 undefined 74 23.3 68 20 82 82 undefined N/A 30.18 1022 N/A 0 0

Powered by AerisWeather